Home > Weather > Zaragoza > Past weeks

Flag for Spain Weather for the Past 2 Weeks in Zaragoza, Spain

Now
75 °F

Passing clouds.


Feels Like: 78 °F
Forecast: 55 / 70 °F
Wind: 10 mph from East

Location: Zaragoza / Aeropuerto

Current Time: May 5, 2016 at 5:02:21 PM

Latest Report: May 5, 2016 at 4:30 PM


Visibility: N/A

Pressure: 29.86 "Hg

Humidity: 41%

Dew Point: 50 °F

Location of ZaragozaLocation

Historic Weather in Zaragoza — Graph

°F

Zaragoza Temperature Yesterday

Maximum temperature yesterday: 81 °F (at 6:30 PM)
Minimum temperature yesterday: 46 °F (at 6:30 AM)
Average temperature yesterday: 63 °F

High & Low Weather Summary for the Past Weeks

 TemperatureHumidityPressure
High81 °F (May 4, 6:30 PM)100% (Apr 21, 4:00 AM)30.33 "Hg (Apr 21, 4:00 AM)
Low41 °F (Apr 29, 6:00 AM)20% (May 4, 7:00 PM)29.83 "Hg (Apr 26, 5:00 PM)
Average57 °F61%30.07 "Hg
* Reported Apr 20 4:00 PM — May 5 4:00 PM, Zaragoza, Weather by CustomWeather, © 2016

Note: Actual official high and low records may vary slightly from our data, if they occured in-between our weather recording intervals... More about our weather records

Advertising

Zaragoza Weather History for the Previous 24 Hours

Scroll right to see more
 ConditionsComfort  
Time TempWeatherWind HumidityBarometerVisibility
4:00 PM
Thu, May 5
73 °FPassing clouds.8 mph33%29.86 "HgN/A
3:30 PM73 °FPassing clouds.8 mph41%29.86 "HgN/A
3:00 PM72 °FPassing clouds.9 mph44%29.89 "HgN/A
2:30 PM70 °FScattered clouds.9 mph46%29.89 "HgN/A
2:00 PM70 °FScattered clouds.9 mph46%29.89 "HgN/A
1:30 PM70 °FPassing clouds.9 mph46%29.92 "HgN/A
1:00 PM70 °FPassing clouds.10 mph43%29.92 "HgN/A
12:30 PM68 °FPassing clouds.8 mph46%29.95 "HgN/A
12:00 PM68 °FPassing clouds.7 mph46%29.95 "HgN/A
11:30 AM66 °FPassing clouds.6 mph56%29.95 "HgN/A
11:00 AM63 °FPassing clouds.6 mph59%29.95 "HgN/A
10:30 AM61 °FPassing clouds.6 mph68%29.95 "HgN/A
10:00 AM59 °FPassing clouds.6 mph72%29.98 "HgN/A
9:30 AM59 °FPassing clouds.5 mph72%29.98 "HgN/A
9:00 AM57 °FPassing clouds.6 mph72%29.98 "HgN/A
8:30 AM55 °FSunny.5 mph72%29.98 "Hg10 mi
8:00 AM54 °FSunny.3 mph77%29.98 "Hg10 mi
7:30 AM52 °FClear.3 mph82%29.98 "Hg10 mi
7:00 AM52 °FClear.5 mph82%29.98 "Hg10 mi
6:30 AM54 °FClear.3 mph77%29.98 "Hg10 mi
6:00 AM55 °FClear.9 mph72%29.98 "Hg10 mi
5:30 AM55 °FClear.12 mph72%29.98 "Hg10 mi
5:00 AM57 °FClear.10 mph67%29.98 "Hg10 mi
4:30 AM57 °FPassing clouds.14 mph72%29.98 "HgN/A
4:00 AM57 °FClear.9 mph72%29.98 "Hg10 mi
3:30 AM55 °FClear.7 mph77%29.98 "Hg10 mi
3:00 AM57 °FClear.6 mph67%30.01 "Hg10 mi
2:30 AM59 °FClear.7 mph63%30.01 "Hg10 mi
2:00 AM61 °FPassing clouds.7 mph59%30.01 "HgN/A
1:30 AM63 °FClear.8 mph56%30.01 "Hg10 mi
1:00 AM63 °FClear.8 mph56%30.01 "Hg10 mi
12:30 AM63 °FClear.7 mph52%30.01 "Hg10 mi
12:00 AM64 °FClear.8 mph49%30.01 "Hg10 mi
11:30 PM
Wed, May 4
64 °FClear.7 mph49%30.01 "Hg10 mi
11:00 PM68 °FClear.7 mph40%30.01 "Hg10 mi
10:30 PM68 °FPassing clouds.7 mph38%30.01 "HgN/A
10:00 PM70 °FSunny.6 mph40%29.98 "Hg10 mi
9:30 PM70 °FSunny.6 mph38%29.98 "Hg10 mi
9:00 PM73 °FSunny.7 mph29%29.98 "Hg10 mi
8:30 PM77 °FSunny.8 mph24%29.98 "Hg10 mi
8:00 PM79 °FPassing clouds.8 mph24%29.98 "HgN/A
7:30 PM79 °FPassing clouds.8 mph23%29.98 "HgN/A
7:00 PM79 °FPassing clouds.6 mph20%29.98 "HgN/A
6:30 PM81 °FPassing clouds.7 mph21%29.98 "HgN/A
6:00 PM79 °FPassing clouds.8 mph23%30.01 "HgN/A
5:30 PM79 °FPassing clouds.7 mph23%30.01 "HgN/A
5:00 PM79 °FPassing clouds.5 mph24%30.01 "HgN/A
Weather by CustomWeather, © 2016

See weather overviewHow to use our weather pages